Regional Weather Roundup
Issued by NWS

Home | Current Version | Previous Version | Text Only | Print | Product List | Glossary Off
Versions: 1 2 3 4 5 6 7 8 9 10 11 12 13 14 15 16 17 18 19 20 21 22 23 24 25 26 27 28 29 30 31 32 33 34 35 36 37 38 39 40 41 42 43 44 45 46 47 48 49 50

723
ASUS43 KDTX 281201
RWRMI
MICHIGAN HOURLY REGIONAL WEATHER ROUNDUP
NATIONAL WEATHER SERVICE DETROIT/PONTIAC MI
700 AM EST TUE FEB 28 2017

NOTE: "FAIR" INDICATES FEW OR NO CLOUDS BELOW 12,000 FEET WITH NO
SIGNIFICANT WEATHER AND/OR OBSTRUCTION TO VISIBILITY.

MIZ047>049-052>055-059>063-066>070-074>076-081>083-281300-
SOUTHEAST LOWER MICHIGAN

CITY           SKY/WX    TMP DP  RH WIND       PRES   REMARKS
ADRIAN         LGT RAIN  39  39 100 S7        30.07S FOG     WCI  34
6HR MIN TEMP:  35; 6HR MAX TEMP:  40; 6HR PCP:  0.06;

ALMA           LGT RAIN  38  38  97 SE8       29.99F WCI  32
ANN ARBOR      LGT RAIN  39  39 100 E6        30.06F FOG     WCI  35
BAD AXE        CLOUDY    35  34  97 SE6       30.07F FOG     WCI  30
6HR MIN TEMP:  33; 6HR MAX TEMP:  36;

CARO           CLOUDY    37  37  99 SE7       30.04F FOG     WCI  32
DETROIT CITY   LGT RAIN  39  38  96 SE7       30.10F FOG     WCI  34
6HR MIN TEMP:  35; 6HR MAX TEMP:  39; 6HR PCP: TRACE;

DETROIT        LGT RAIN  41  38  89 SE7       30.09F FOG
6HR MIN TEMP:  37; 6HR MAX TEMP:  41; 6HR PCP:  0.03;

FLINT          CLOUDY    40  38  93 S8        30.06F WCI  34
6HR MIN TEMP:  34; 6HR MAX TEMP:  41;

GROSSE ILE     LGT RAIN  40  38  93 SE7       30.08F
6HR MIN TEMP:  37; 6HR MAX TEMP:  40; 6HR PCP:  0.01;

HILLSDALE      RAIN      39  37  93 SE10      30.02F WCI  32
HOWELL         LGT RAIN  40  38  95 SE10      30.03F WCI  33
6HR MIN TEMP:  37; 6HR MAX TEMP:  40;


CITY           SKY/WX    TMP DP  RH WIND       PRES   REMARKS
JACKSON        LGT RAIN  41  39  93 SE12      30.02F FOG
6HR MIN TEMP:  37; 6HR MAX TEMP:  41; 6HR PCP:  0.07;

LAMBERTVILLE   LGT RAIN  42  40  93 SE6       30.07F
6HR MIN TEMP:  35; 6HR MAX TEMP:  42;

LANSING        FOG       41  38  89 SE13      30.00F VSB 1
6HR MIN TEMP:  39; 6HR MAX TEMP:  42; 6HR PCP:  0.03;

LAPEER         CLOUDY    39  38  97 S7        30.06F FOG     WCI  34
6HR MIN TEMP:  36; 6HR MAX TEMP:  40;

MASON          LGT RAIN  41  40  97 SE10G17   30.01S
MONROE         LGT RAIN  40  40  99 SE6       30.06F
6HR MIN TEMP:  36; 6HR MAX TEMP:  41; 6HR PCP:  0.04;

MT. CLEMENS    CLOUDY    38  38 100 SE12      30.09F WCI  31
6HR MIN TEMP:  32; 6HR MAX TEMP:  38;

PONTIAC        LGT RAIN  39  36  89 SE9       30.05F FOG     WCI  33
6HR MIN TEMP:  38; 6HR MAX TEMP:  39; 6HR PCP: TRACE;

PORT HOPE        N/A     34  33  96 SE8       30.06F WCI  27
6HR MIN TEMP:  33; 6HR MAX TEMP:  40;

PORT HURON     MOCLDY    36  36 100 SE8       30.11F FOG     WCI  29
TRI CITIES     CLOUDY    39  39 100 SE9       30.04S FOG     WCI  33
6HR MIN TEMP:  35; 6HR MAX TEMP:  39;

MIDLAND        CLOUDY    39  37  92 SE8       30.02F FOG     WCI  33
6HR MIN TEMP:  32; 6HR MAX TEMP:  39;

TROY           RAIN      39  37  91 SE3       30.11F
SAGINAW HB     CLOUDY    37  36  93 SE9       30.04F FOG     WCI  31
$$
MIZ043>046-050>051-056>058-064>065-071>073-077>080-281300-
SOUTHWEST LOWER MICHIGAN

CITY           SKY/WX    TMP DP  RH WIND       PRES   REMARKS
BATTLE CREEK   CLOUDY    43  41  93 S14       29.97F
6HR MIN TEMP:  39; 6HR MAX TEMP:  43; 6HR PCP:  0.05;

BENTON HARBOR  CLOUDY    48  43  82 SE17G23   29.91S
6HR MIN TEMP:  44; 6HR MAX TEMP:  48; 6HR PCP:  0.03;

BIG RAPIDS     LGT SNOW  37  35  93 SE6       29.97S WCI  32
6HR MIN TEMP:  28; 6HR MAX TEMP:  37;

COLDWATER      DRIZZLE   42  42  99 SE9       30.00F
6HR MIN TEMP:  40; 6HR MAX TEMP:  42;

FREMONT        LGT RAIN  39  39 100 E5        29.93F
HOLLAND        CLOUDY    45  41  86 E5        29.93R
6HR MIN TEMP:  42; 6HR MAX TEMP:  45; 6HR PCP:  0.02;

GRAND RAPIDS   CLOUDY    43  39  86 SE5       29.95R FOG
6HR MIN TEMP:  39; 6HR MAX TEMP:  43; 6HR PCP:  0.02;

IONIA          CLOUDY    40  39  97 SE13      29.95F FOG     WCI  33
6HR MIN TEMP:  36; 6HR MAX TEMP:  40;

KALAMAZOO      CLOUDY    44  40  85 S12G21    29.95F
6HR MIN TEMP:  41; 6HR MAX TEMP:  44; 6HR PCP:  0.03;

LUDINGTON      CLOUDY    39  38  97 SE8       29.90F FOG     WCI  34
6HR MIN TEMP:  33; 6HR MAX TEMP:  41; 6HR PCP:  0.02;

MARSHALL       LGT RAIN  43  42  97 SE9       29.98F
6HR MIN TEMP:  39; 6HR MAX TEMP:  43; 6HR PCP:  0.05;

MOUNT PLEASANT CLOUDY    37  36  97 SE7       30.01R FOG     WCI  31
6HR MIN TEMP:  30; 6HR MAX TEMP:  37;

MUSKEGON       LGT RAIN  43  41  93 E10       29.92F FOG
6HR MIN TEMP:  40; 6HR MAX TEMP:  44; 6HR PCP:  0.35;

SOUTH HAVEN    CLOUDY    46  44  90 S10G16    29.91S
$$
MIZ016>042-281300-
NORTHERN LOWER MICHIGAN

CITY           SKY/WX    TMP DP  RH WIND       PRES   REMARKS
ALPENA         CLOUDY    37  34  89 S12       30.03F WCI  29
6HR MIN TEMP:  25; 6HR MAX TEMP:  37;

BEAVER ISLAND  CLOUDY    36  31  83 SE6       29.93F WCI  31
6HR MIN TEMP:  31; 6HR MAX TEMP:  37;

BELLAIRE       CLOUDY    32  30  94 CALM      29.95F
6HR MIN TEMP:  25; 6HR MAX TEMP:  32;

CADILLAC       LGT RAIN  36  34  94 E6        29.94S WCI  31
CHARLEVOIX     PTCLDY    37  31  81 SE8       29.96F WCI  30
FRANKFORT      CLOUDY    41  37  85 SE9       29.91F
GAYLORD        CLOUDY    34  28  79 SE8       29.96F WCI  27
6HR MIN TEMP:  27; 6HR MAX TEMP:  34;

GRAYLING       CLOUDY    36  34  91 SE8       29.98F WCI  30
6HR MIN TEMP:  23; 6HR MAX TEMP:  36;

HARBOR SPRINGS PTCLDY    34  30  86 E7        29.96F WCI  28
HOUGHTON LAKE  CLOUDY    35  32  88 SE6       29.99F WCI  30
6HR MIN TEMP:  28; 6HR MAX TEMP:  36;

MANISTEE       LGT RAIN  37  36  96 E6        29.91F FOG     WCI  32
OSCODA         CLOUDY    36  34  94 S6        30.06S FOG     WCI  31
6HR MIN TEMP:  27; 6HR MAX TEMP:  36;

PELLSTON       CLOUDY    25  21  85 CALM      29.96F
6HR MIN TEMP:  19; 6HR MAX TEMP:  25;

ROGERS CITY    CLOUDY    36  31  83 S10       30.02F WCI  28
TRAVERSE CITY  LGT RAIN  40  32  73 SE8       29.94F WCI  34
6HR MIN TEMP:  30; 6HR MAX TEMP:  40; 6HR PCP: TRACE;

$$
MIZ007>008-015-281300-
EASTERN UPPER MICHIGAN

CITY           SKY/WX    TMP DP  RH WIND       PRES   REMARKS
KINROSS        CLOUDY    27  25  92 SE9       29.96F WCI  18
6HR MIN TEMP:  23; 6HR MAX TEMP:  27;

MACKINAC ISLAN MOCLDY    34  28  76 SE13G18   29.96F WCI  25
6HR MIN TEMP:  31; 6HR MAX TEMP:  34;

NEWBERRY       PTCLDY    31  27  83 SE8       29.92S WCI  24
6HR MIN TEMP:  26; 6HR MAX TEMP:  31;

S. S. MARIE    CLOUDY    27  25  92 E5        29.97F WCI  22
6HR MIN TEMP:  24; 6HR MAX TEMP:  27;

MUNISING         N/A     34  31  88 SW6       29.87F WCI  29
6HR MIN TEMP:  33; 6HR MAX TEMP:  36;

$$
MIZ004>006-011>014-085-281300-
CENTRAL UPPER MICHIGAN

CITY           SKY/WX    TMP DP  RH WIND       PRES   REMARKS
MANISTIQUE     CLOUDY    34  34  98 E7        29.91S WCI  28
6HR MIN TEMP:  31; 6HR MAX TEMP:  34;

ESCANABA       MOCLDY    33  32  96 CALM      29.89S
6HR MIN TEMP:  28; 6HR MAX TEMP:  35;

MENOMINEE      CLOUDY    38  36  92 CALM      29.88S
6HR MIN TEMP:  33; 6HR MAX TEMP:  38; 6HR PCP: TRACE;

SAWYER-GWINN   CLOUDY    32  32 100 S9        29.86F FOG     WCI  24
$$
MIZ001>003-009>011-084-281300-
WESTERN UPPER MICHIGAN

CITY           SKY/WX    TMP DP  RH WIND       PRES   REMARKS
IRON MOUNTAIN  CLOUDY    26  23  88 S3        29.84F FOG
6HR MIN TEMP:  25; 6HR MAX TEMP:  31;

HOUGHTON       FRZ RAIN  33  26  75 E8        29.82R WCI  26
6HR MIN TEMP:  22; 6HR MAX TEMP:  33; 6HR PCP: TRACE;

COPPER HARBOR    N/A     34  30  85 S3        29.84F
6HR MIN TEMP:  29; 6HR MAX TEMP:  34;

IRONWOOD       LGT RAIN  36  30  79 W6        29.81R WCI  31
6HR MIN TEMP:  35; 6HR MAX TEMP:  37; 6HR PCP: TRACE;

$$

ABBREVIATIONS USED IN REMARKS
   TC - TEMPERATURE IN CELSIUS
  WCI - WIND CHILL INDEX
   HX - HEAT INDEX
  VSB - VISIBILITY





USA.gov is the U.S. government's official web portal to all federal, state and local government web resources and services.